Flag for Sudan Weather past 2 weeks in Khartoum, Sudan

Now
N/A

Sandstorm.


Feels Like: N/A
Forecast: 73 / 101 °F
Wind: 17 mph from North

Location: Khartoum Airport

Current Time: Mar 4, 2015 at 7:10:12 PM

Latest Report: Mar 4, 2015 at 6:30 PM


Visibility: 5 mi

Pressure: 29.77 "Hg

Humidity: N/A

Dew point: N/A

Location of KhartoumLocation

Historic Weather in Khartoum — Graph

°F

Khartoum temperature yesterday

Maximum temperature yesterday: 100 °F (at 2:00 PM)
Minimum temperature yesterday: 79 °F (at 8:00 AM)
Average temperature yesterday: 90 °F

Past Weeks' High & Low Weather Summary

 TemperatureHumidityPressure
High106 °F (Feb 27, 3:00 PM)35% (Mar 3, 10:00 AM)30.01 "Hg (Mar 3, 10:00 AM)
Low61 °F (Feb 21, 8:00 AM)1% (Feb 25, 2:00 PM)29.68 "Hg (Feb 22, 9:30 AM)
Average85 °F16%29.83 "Hg
* Reported Feb 17 6:00 PM — Mar 4 6:00 PM, Khartoum, Weather by CustomWeather, © 2015

Note: Actual official high and low records may vary slightly from our data, if they occured in-between our weather recording intervals... More about our weather records

Advertising

Khartoum weather history for previous 24 hours

 ConditionsComfort  
Time TempWeatherWind HumidityBarometerVisibility
6:00 PM
Wed, Mar 4
95 °FSandstorm.15 mph13%29.77 "Hg5 mi
5:30 PMN/ASandstorm.18 mphN/A29.77 "Hg5 mi
5:00 PM97 °FSleet. Cloudy.17 mph12%29.77 "Hg5 mi
4:30 PMN/ASleet.18 mphN/A29.77 "Hg5 mi
4:00 PMN/A16 mphN/A29.80 "Hg5 mi
3:30 PMN/A16 mphN/A29.80 "Hg5 mi
3:00 PM95 °FExtremely hot.16 mph19%29.83 "Hg5 mi
2:30 PMN/A17 mphN/A29.83 "Hg5 mi
2:00 PM93 °FExtremely hot.16 mph20%29.83 "Hg5 mi
1:30 PMN/ASandstorm.16 mphN/A29.86 "Hg5 mi
12:30 PMN/ASandstorm.18 mphN/A29.86 "Hg5 mi
12:00 PM88 °FSandstorm.18 mph27%29.89 "Hg4 mi
11:30 AMN/ASandstorm.18 mphN/A29.89 "Hg4 mi
11:00 AM86 °FSandstorm.15 mph29%29.92 "Hg4 mi
10:00 AM84 °FHaze.12 mph27%29.92 "Hg4 mi
9:30 AMN/ASandstorm.14 mphN/A29.89 "Hg4 mi
9:00 AM81 °FPleasantly warm.15 mph28%29.89 "Hg4 mi
8:30 AMN/ASandstorm.15 mphN/A29.89 "Hg4 mi
8:00 AM81 °FSandstorm.16 mph24%29.89 "Hg4 mi
7:30 AMN/ASandstorm.14 mphN/A29.86 "Hg2 mi
6:30 AMN/AClear.13 mphN/A29.83 "Hg10 mi
6:00 AM82 °FClear.13 mph20%29.83 "Hg10 mi
5:30 AMN/AClear.13 mphN/A29.83 "Hg10 mi
5:00 AM82 °FClear.13 mph20%29.83 "Hg10 mi
4:30 AMN/AClear.13 mphN/A29.83 "Hg10 mi
4:00 AM84 °FClear.13 mph19%29.83 "Hg10 mi
3:30 AMN/AClear.12 mphN/A29.83 "Hg10 mi
3:00 AM86 °FPleasantly warm.13 mph18%29.83 "Hg5 mi
2:30 AMN/A14 mphN/A29.83 "Hg5 mi
2:00 AM86 °FPleasantly warm.13 mph18%29.83 "Hg5 mi
1:30 AMN/A13 mphN/A29.83 "Hg5 mi
1:00 AM88 °FPleasantly warm.14 mph15%29.83 "Hg4 mi
12:30 AMN/ASandstorm.14 mphN/A29.83 "Hg5 mi
12:00 AM88 °FPleasantly warm.14 mph15%29.83 "Hg4 mi
11:30 PM
Tue, Mar 3
N/ASandstorm.15 mphN/A29.83 "Hg4 mi
11:00 PM90 °FClear.13 mph15%29.83 "Hg10 mi
10:30 PMN/AClear.13 mphN/A29.83 "Hg10 mi
10:00 PM91 °FClear.12 mph14%29.83 "Hg10 mi
9:00 PM93 °FClear.10 mph16%29.80 "Hg10 mi
8:30 PMN/AClear.20 mphN/A29.80 "Hg10 mi
8:00 PM95 °FClear.14 mph18%29.77 "Hg10 mi
7:30 PMN/AClear.13 mphN/A29.77 "Hg10 mi
7:00 PM97 °FClear.14 mph16%29.77 "Hg10 mi
Weather by CustomWeather, © 2015

See weather overviewHow to use our weather pages